Lexington, KY

12:21 AM EST on December 18, 2017 (GMT -0500)
Blue Grass

Weather History for KLEX - September, 2013

Change the Weather History Date:

Wednesday, September 18, 2013

  Actual Average Record
Temperature  
Mean Temperature 66 °F 67 °F  
Max Temperature 73 °F 78 °F 96 °F (1953)
Min Temperature 58 °F 57 °F 39 °F (1937)
Degree Days  
Heating Degree Days 0 2  
Month to date heating degree days 8 12  
Since 1 July heating degree days 11 14  
Cooling Degree Days 1 4  
Month to date cooling degree days 124 110  
Year to date cooling degree days 1162 1127  
Growing Degree Days 15 (Base 50)    
Moisture  
Dew Point 63 °F    
Average Humidity 80    
Maximum Humidity 87    
Minimum Humidity 73    
Precipitation  
Precipitation T in 0.09 in 1.10 in (1875)
Month to date precipitation 0.18 1.75  
Year to date precipitation 43.82 33.42  
Snow  
Snow 0.00 in 0.00 in - ()
Month to date snowfall 0.0 0.0  
Since 1 July snowfall 0.0 0.0  
Since 1 September snowfall 0.0 0.0  
Snow Depth 0.00 in    
Sea Level Pressure  
Sea Level Pressure 30.13 in    
Wind  
Wind Speed 8 mph (South)    
Max Wind Speed 16 mph    
Max Gust Speed 21 mph    
Visibility 10 miles    
Events      
T = Trace of Precipitation, MM = Missing Value Source: NWS Daily Summary

Daily Weather History Graph

Daily Weather History Graph

Search for Another Location

Airport or City:

Trip Planner

Search our weather history database for the weather conditions in past years. The results will help you decide how hot, cold, wet, or windy it might be!

Date:

Astronomy

Sep. 18, 2013 Rise Set
Actual Time 7:22 AM EDT 7:41 PM EDT
Civil Twilight 6:56 AM EDT 8:07 PM EDT
Nautical Twilight 6:25 AM EDT 8:38 PM EDT
Astronomical Twilight 5:54 AM EDT 9:09 PM EDT
Moon 7:04 PM EDT 6:24 AM EDT
Length of Visible Light 13h 10m
Length of Day
12h 18m
Waxing Gibbous, 99% of the Moon is Illuminated
Sep 18
Waxing Gibbous
Sep 19
Full
Sep 26
Last Quarter
Oct 4
New
Oct 11
First Quarter

Hourly Weather History & Observations

Time (EDT) Temp. Dew Point Humidity Pressure Visibility Wind Dir Wind Speed Gust Speed Precip Events Conditions
12:54 AM 64.0 °F 57.9 °F 80% 30.14 in 10.0 mi East 3.5 mph - N/A   Mostly Cloudy
1:54 AM 63.0 °F 57.0 °F 81% 30.13 in 10.0 mi ESE 4.6 mph - N/A   Partly Cloudy
2:54 AM 64.0 °F 57.9 °F 80% 30.12 in 10.0 mi SE 6.9 mph - N/A   Scattered Clouds
3:54 AM 64.0 °F 57.9 °F 80% 30.12 in 10.0 mi SE 3.5 mph - N/A   Scattered Clouds
4:54 AM 64.0 °F 60.1 °F 87% 30.12 in 10.0 mi SSE 6.9 mph - N/A   Mostly Cloudy
5:54 AM 66.0 °F 62.1 °F 87% 30.12 in 10.0 mi South 9.2 mph - N/A   Overcast
6:54 AM 66.0 °F 62.1 °F 87% 30.14 in 10.0 mi South 6.9 mph - N/A   Overcast
7:54 AM 66.9 °F 62.1 °F 84% 30.15 in 10.0 mi South 6.9 mph - N/A   Overcast
8:54 AM 68.0 °F 63.0 °F 84% 30.16 in 10.0 mi South 8.1 mph - 0.00 in   Overcast
9:01 AM 68.0 °F 63.0 °F 84% 30.18 in 10.0 mi South 6.9 mph - N/A   Overcast
9:54 AM 69.1 °F 63.0 °F 81% 30.17 in 10.0 mi SSW 10.4 mph - N/A   Overcast
10:54 AM 70.0 °F 63.0 °F 78% 30.17 in 10.0 mi SW 9.2 mph - N/A   Overcast
11:54 AM 71.1 °F 62.1 °F 73% 30.17 in 10.0 mi WSW 13.8 mph - N/A   Overcast
12:54 PM 71.1 °F 63.0 °F 75% 30.16 in 10.0 mi SSW 10.4 mph - N/A   Overcast
1:54 PM 71.1 °F 64.0 °F 78% 30.15 in 10.0 mi SW 9.2 mph - N/A   Overcast
2:54 PM 72.0 °F 64.0 °F 76% 30.13 in 10.0 mi SSW 9.2 mph - N/A   Overcast
3:54 PM 72.0 °F 64.0 °F 76% 30.12 in 8.0 mi SSW 8.1 mph - N/A   Overcast
4:54 PM 72.0 °F 64.0 °F 76% 30.11 in 6.0 mi South 6.9 mph - N/A   Haze
5:54 PM 72.0 °F 64.9 °F 78% 30.10 in 6.0 mi South 6.9 mph - N/A   Haze
6:02 PM 72.0 °F 64.9 °F 78% 30.12 in 10.0 mi South 6.9 mph - N/A   Overcast
6:54 PM 72.0 °F 64.9 °F 78% 30.10 in 9.0 mi South 8.1 mph - N/A   Overcast
7:54 PM 71.1 °F 64.9 °F 81% 30.09 in 10.0 mi SSE 8.1 mph - N/A   Mostly Cloudy
8:54 PM 70.0 °F 64.9 °F 84% 30.11 in 10.0 mi SE 8.1 mph - N/A   Overcast
9:54 PM 70.0 °F 64.9 °F 84% 30.12 in 10.0 mi South 5.8 mph - N/A   Overcast
10:54 PM 69.1 °F 64.9 °F 87% 30.11 in 10.0 mi South 6.9 mph - N/A   Overcast
11:54 PM 69.1 °F 64.9 °F 87% 30.11 in 10.0 mi South 6.9 mph - N/A   Mostly Cloudy